GLD1204 SBPJ-SBSN

Flight info

Callsign GLD1204
Flight time 1h 35m
Altitude 36000
Route OPNUP DCT ITALA DCT RONUB DCT ANRUS DCT GELVU DCT ATIDO
Aircraft A20N/M-SDE2E3FGHIRWXY/LB1

Departure

Time 2026-04-18 19:48
Airport Brigadeiro Lysias Rodrigues Airport (SBPJ)

Arrival

Time 2026-04-18 21:23
Airport Santarém - Maestro Wilson Fonseca International Airport (SBSN)
Time Latitude Longitude Altitude Speed Heading
2026-04-18 19:28 -10.29396 -48.35769 760 ft 0 kts 212°
2026-04-18 19:38 -10.29391 -48.35766 760 ft 1 kts 229°
2026-04-18 19:38 -10.29387 -48.35760 760 ft 1 kts 258°
2026-04-18 19:38 -10.29386 -48.35755 760 ft 0 kts 276°
2026-04-18 19:41 -10.29384 -48.35771 756 ft 5 kts 278°
2026-04-18 19:41 -10.29349 -48.35811 758 ft 10 kts 355°
2026-04-18 19:41 -10.29269 -48.35779 754 ft 15 kts 28°
2026-04-18 19:41 -10.29246 -48.35766 757 ft 0 kts 30°
2026-04-18 19:42 -10.29228 -48.35754 756 ft 5 kts 34°
2026-04-18 19:42 -10.29189 -48.35729 755 ft 9 kts 24°
2026-04-18 19:42 -10.29122 -48.35749 755 ft 12 kts 313°
2026-04-18 19:43 -10.29067 -48.35830 753 ft 16 kts 303°
2026-04-18 19:43 -10.29040 -48.35890 750 ft 0 kts 229°
2026-04-18 19:43 -10.29054 -48.35885 751 ft 7 kts 149°
2026-04-18 19:43 -10.29103 -48.35794 754 ft 19 kts 121°
2026-04-18 19:44 -10.29176 -48.35674 753 ft 20 kts 122°
2026-04-18 19:44 -10.29251 -48.35559 762 ft 19 kts 124°
2026-04-18 19:44 -10.29397 -48.35338 768 ft 18 kts 123°
2026-04-18 19:45 -10.29466 -48.35231 771 ft 18 kts 123°
2026-04-18 19:45 -10.29538 -48.35122 772 ft 19 kts 124°
2026-04-18 19:45 -10.29611 -48.35012 775 ft 19 kts 124°
2026-04-18 19:45 -10.29677 -48.34899 777 ft 19 kts 110°
2026-04-18 19:46 -10.29716 -48.34777 779 ft 13 kts 106°
2026-04-18 19:46 -10.29754 -48.34773 779 ft 3 kts 250°
2026-04-18 19:46 -10.29748 -48.34797 779 ft 0 kts 295°
2026-04-18 19:47 -10.29745 -48.34803 779 ft 12 kts 295°
2026-04-18 19:47 -10.29561 -48.35097 773 ft 85 kts 303°
2026-04-18 19:48 -10.29116 -48.35771 755 ft 142 kts 305°
2026-04-18 19:48 -10.28483 -48.36698 1015 ft 161 kts 306°
2026-04-18 19:48 -10.27871 -48.37611 1640 ft 160 kts 306°
2026-04-18 19:48 -10.27220 -48.38601 2020 ft 179 kts 306°
2026-04-18 19:49 -10.26498 -48.39711 2433 ft 199 kts 306°
2026-04-18 19:49 -10.25699 -48.40946 2803 ft 221 kts 306°
2026-04-18 19:49 -10.24829 -48.42308 3281 ft 239 kts 306°
2026-04-18 19:49 -10.23893 -48.43773 3854 ft 254 kts 306°
2026-04-18 19:50 -10.22916 -48.45289 4508 ft 265 kts 307°
2026-04-18 19:50 -10.21874 -48.46877 5213 ft 274 kts 308°
2026-04-18 19:50 -10.20790 -48.48492 5988 ft 279 kts 308°
2026-04-18 19:50 -10.19673 -48.50117 6753 ft 282 kts 309°
2026-04-18 19:51 -10.18519 -48.51730 7532 ft 283 kts 314°
2026-04-18 19:51 -10.16924 -48.52898 8171 ft 289 kts 343°
2026-04-18 19:51 -10.14930 -48.53106 8814 ft 293 kts 13°
2026-04-18 19:51 -10.12899 -48.52772 9443 ft 299 kts
2026-04-18 19:52 -10.10836 -48.53040 10147 ft 303 kts 347°
2026-04-18 19:52 -10.08734 -48.53615 10390 ft 324 kts 347°
2026-04-18 19:52 -10.06484 -48.54208 10577 ft 344 kts 347°
2026-04-18 19:52 -10.04133 -48.54849 11062 ft 352 kts 346°
2026-04-18 19:53 -10.01768 -48.55518 11736 ft 354 kts 346°
2026-04-18 19:53 -9.99385 -48.56209 12387 ft 358 kts 345°
2026-04-18 19:53 -9.94553 -48.57630 13656 ft 365 kts 345°
2026-04-18 19:54 -9.92101 -48.58352 14204 ft 368 kts 345°
2026-04-18 19:54 -9.89624 -48.59080 14737 ft 372 kts 345°
2026-04-18 19:54 -9.87128 -48.59812 15285 ft 375 kts 345°
2026-04-18 19:54 -9.84602 -48.60551 15798 ft 379 kts 345°
2026-04-18 19:55 -9.82056 -48.61295 16332 ft 382 kts 345°
2026-04-18 19:55 -9.79523 -48.62036 16851 ft 385 kts 344°
2026-04-18 19:55 -9.76936 -48.62790 17353 ft 389 kts 344°
2026-04-18 19:55 -9.74324 -48.63551 17859 ft 392 kts 344°
2026-04-18 19:56 -9.71729 -48.64317 18312 ft 395 kts 342°
2026-04-18 19:56 -9.69205 -48.65506 18746 ft 397 kts 327°
2026-04-18 19:56 -9.67049 -48.67252 19183 ft 398 kts 314°
2026-04-18 19:56 -9.65281 -48.69423 19624 ft 400 kts 308°
2026-04-18 19:57 -9.63569 -48.71653 20058 ft 403 kts 308°
2026-04-18 19:57 -9.61839 -48.73899 20494 ft 405 kts 308°
2026-04-18 19:57 -9.60098 -48.76154 20932 ft 407 kts 308°
2026-04-18 19:57 -9.58347 -48.78419 21359 ft 410 kts 308°
2026-04-18 19:58 -9.56581 -48.80703 21780 ft 413 kts 308°
2026-04-18 19:58 -9.54805 -48.82998 22195 ft 415 kts 308°
2026-04-18 19:58 -9.53018 -48.85307 22618 ft 418 kts 308°
2026-04-18 19:58 -9.51219 -48.87631 23027 ft 420 kts 308°
2026-04-18 19:59 -9.49409 -48.89968 23416 ft 423 kts 308°
2026-04-18 19:59 -9.47588 -48.92319 23768 ft 425 kts 308°
2026-04-18 19:59 -9.45759 -48.94680 24123 ft 426 kts 308°
2026-04-18 19:59 -9.43926 -48.97045 24469 ft 428 kts 308°
2026-04-18 20:00 -9.42084 -48.99421 24820 ft 430 kts 307°
2026-04-18 20:00 -9.40231 -49.01809 25153 ft 432 kts 307°
2026-04-18 20:00 -9.38373 -49.04204 25486 ft 433 kts 307°
2026-04-18 20:00 -9.36505 -49.06612 25816 ft 435 kts 307°
2026-04-18 20:01 -9.34632 -49.09025 26132 ft 437 kts 307°
2026-04-18 20:01 -9.32777 -49.11415 26431 ft 438 kts 307°
2026-04-18 20:01 -9.30887 -49.13850 26737 ft 440 kts 307°
2026-04-18 20:01 -9.28995 -49.16286 27030 ft 442 kts 307°
2026-04-18 20:02 -9.27091 -49.18738 27328 ft 443 kts 307°
2026-04-18 20:02 -9.25182 -49.21194 27602 ft 445 kts 307°
2026-04-18 20:02 -9.23265 -49.23660 27882 ft 447 kts 307°
2026-04-18 20:02 -9.21343 -49.26134 28147 ft 448 kts 307°
2026-04-18 20:03 -9.19410 -49.28620 28416 ft 450 kts 307°
2026-04-18 20:03 -9.17472 -49.31113 28686 ft 451 kts 307°
2026-04-18 20:03 -9.15528 -49.33612 28933 ft 453 kts 307°
2026-04-18 20:03 -9.13576 -49.36121 29193 ft 454 kts 307°
2026-04-18 20:04 -9.11618 -49.38638 29442 ft 456 kts 307°
2026-04-18 20:04 -9.09655 -49.41160 29691 ft 457 kts 307°
2026-04-18 20:04 -9.07685 -49.43692 29927 ft 459 kts 307°
2026-04-18 20:04 -9.05706 -49.46234 30137 ft 460 kts 307°
2026-04-18 20:05 -9.03726 -49.48776 30363 ft 461 kts 307°
2026-04-18 20:05 -9.01735 -49.51333 30589 ft 462 kts 307°
2026-04-18 20:05 -8.99742 -49.53892 30814 ft 463 kts 307°
2026-04-18 20:05 -8.97749 -49.56451 31094 ft 463 kts 307°
2026-04-18 20:06 -8.95761 -49.59002 31406 ft 462 kts 307°
2026-04-18 20:06 -8.93773 -49.61553 31695 ft 461 kts 307°
2026-04-18 20:06 -8.91790 -49.64098 31979 ft 460 kts 307°
2026-04-18 20:06 -8.89837 -49.66603 32253 ft 459 kts 307°
2026-04-18 20:07 -8.87863 -49.69134 32533 ft 459 kts 307°
2026-04-18 20:07 -8.85889 -49.71666 32795 ft 458 kts 307°
2026-04-18 20:07 -8.83919 -49.74191 33070 ft 457 kts 308°
2026-04-18 20:07 -8.81951 -49.76713 33310 ft 457 kts 308°
2026-04-18 20:08 -8.79986 -49.79231 33565 ft 456 kts 308°
2026-04-18 20:08 -8.78019 -49.81751 33804 ft 455 kts 308°
2026-04-18 20:08 -8.76060 -49.84260 34014 ft 455 kts 308°
2026-04-18 20:08 -8.74253 -49.86574 34182 ft 455 kts 308°
2026-04-18 20:09 -8.72294 -49.89081 34367 ft 454 kts 308°
2026-04-18 20:09 -8.70331 -49.91594 34553 ft 454 kts 308°
2026-04-18 20:09 -8.68373 -49.94098 34740 ft 454 kts 308°
2026-04-18 20:09 -8.66414 -49.96604 34903 ft 454 kts 308°
2026-04-18 20:10 -8.64461 -49.99102 35069 ft 454 kts 308°
2026-04-18 20:10 -8.62498 -50.01612 35243 ft 454 kts 308°
2026-04-18 20:10 -8.60543 -50.04112 35425 ft 453 kts 308°
2026-04-18 20:10 -8.58589 -50.06610 35611 ft 453 kts 308°
2026-04-18 20:11 -8.56631 -50.09113 35777 ft 453 kts 308°
2026-04-18 20:11 -8.54701 -50.11578 35801 ft 453 kts 308°
2026-04-18 20:11 -8.50791 -50.16573 35801 ft 452 kts 308°
2026-04-18 20:12 -8.46886 -50.21560 35798 ft 453 kts 308°
2026-04-18 20:12 -8.42971 -50.26558 35797 ft 453 kts 308°
2026-04-18 20:13 -8.39084 -50.31518 35798 ft 454 kts 308°
2026-04-18 20:13 -8.35163 -50.36521 35804 ft 454 kts 308°
2026-04-18 20:14 -8.31234 -50.41530 35807 ft 455 kts 308°
2026-04-18 20:14 -8.27320 -50.46519 35812 ft 456 kts 308°
2026-04-18 20:15 -8.23380 -50.51540 35815 ft 456 kts 308°
2026-04-18 20:15 -8.19435 -50.56564 35819 ft 457 kts 308°
2026-04-18 20:16 -8.15488 -50.61590 35821 ft 457 kts 308°
2026-04-18 20:16 -8.11534 -50.66623 35820 ft 457 kts 308°
2026-04-18 20:17 -8.07584 -50.71649 35814 ft 457 kts 308°
2026-04-18 20:17 -8.03629 -50.76680 35813 ft 457 kts 308°
2026-04-18 20:18 -7.99678 -50.81703 35809 ft 457 kts 308°
2026-04-18 20:18 -7.95725 -50.86727 35804 ft 457 kts 308°
2026-04-18 20:19 -7.91768 -50.91755 35801 ft 457 kts 308°
2026-04-18 20:19 -7.87835 -50.96751 35802 ft 457 kts 308°
2026-04-18 20:20 -7.84521 -51.00958 35800 ft 457 kts 308°
2026-04-18 20:20 -7.80564 -51.05981 35799 ft 457 kts 308°
2026-04-18 20:21 -7.76605 -51.11006 35800 ft 458 kts 308°
2026-04-18 20:21 -7.72666 -51.16003 35800 ft 458 kts 308°
2026-04-18 20:22 -7.68700 -51.21032 35797 ft 458 kts 308°
2026-04-18 20:22 -7.64736 -51.26058 35798 ft 458 kts 308°
2026-04-18 20:23 -7.60618 -51.30960 35800 ft 459 kts 312°
2026-04-18 20:23 -7.56275 -51.35675 35801 ft 459 kts 312°
2026-04-18 20:24 -7.51938 -51.40403 35804 ft 459 kts 312°
2026-04-18 20:24 -7.47602 -51.45125 35802 ft 459 kts 312°
2026-04-18 20:25 -7.43259 -51.49852 35801 ft 459 kts 312°
2026-04-18 20:25 -7.38918 -51.54574 35801 ft 459 kts 312°
2026-04-18 20:26 -7.34576 -51.59297 35802 ft 460 kts 312°
2026-04-18 20:26 -7.30254 -51.63996 35803 ft 460 kts 312°
2026-04-18 20:27 -7.25904 -51.68724 35800 ft 460 kts 312°
2026-04-18 20:27 -7.21553 -51.73452 35796 ft 460 kts 312°
2026-04-18 20:28 -7.17193 -51.78188 35803 ft 460 kts 312°
2026-04-18 20:28 -7.12867 -51.82886 35801 ft 460 kts 312°
2026-04-18 20:29 -7.08506 -51.87619 35804 ft 460 kts 312°
2026-04-18 20:29 -7.04160 -51.92335 35800 ft 460 kts 312°
2026-04-18 20:30 -6.99807 -51.97059 35795 ft 460 kts 312°
2026-04-18 20:30 -6.95482 -52.01750 35796 ft 460 kts 312°
2026-04-18 20:31 -6.91127 -52.06473 35794 ft 460 kts 312°
2026-04-18 20:31 -6.86767 -52.11199 35796 ft 461 kts 312°
2026-04-18 20:32 -6.82408 -52.15922 35799 ft 461 kts 313°
2026-04-18 20:32 -6.78036 -52.20658 35799 ft 461 kts 313°
2026-04-18 20:33 -6.73666 -52.25392 35802 ft 462 kts 313°
2026-04-18 20:33 -6.69294 -52.30125 35804 ft 462 kts 313°
2026-04-18 20:34 -6.64916 -52.34864 35809 ft 462 kts 313°
2026-04-18 20:34 -6.60537 -52.39602 35806 ft 462 kts 313°
2026-04-18 20:35 -6.56184 -52.44312 35804 ft 463 kts 313°
2026-04-18 20:35 -6.51802 -52.49051 35805 ft 463 kts 313°
2026-04-18 20:36 -6.47415 -52.53794 35804 ft 463 kts 313°
2026-04-18 20:36 -6.43022 -52.58544 35806 ft 463 kts 313°
2026-04-18 20:37 -6.38630 -52.63289 35803 ft 464 kts 313°
2026-04-18 20:37 -6.34228 -52.68045 35808 ft 464 kts 313°
2026-04-18 20:38 -6.29741 -52.72719 35811 ft 464 kts 315°
2026-04-18 20:38 -6.25165 -52.77302 35812 ft 464 kts 315°
2026-04-18 20:39 -6.20631 -52.81872 35812 ft 464 kts 315°
2026-04-18 20:39 -6.16084 -52.86476 35814 ft 464 kts 315°
2026-04-18 20:40 -6.11535 -52.91085 35816 ft 464 kts 315°
2026-04-18 20:40 -6.06989 -52.95689 35818 ft 464 kts 315°
2026-04-18 20:41 -6.02440 -53.00294 35819 ft 464 kts 315°
2026-04-18 20:41 -5.97895 -53.04894 35822 ft 463 kts 315°
2026-04-18 20:42 -5.93358 -53.09484 35820 ft 463 kts 315°
2026-04-18 20:42 -5.88817 -53.14078 35819 ft 463 kts 315°
2026-04-18 20:43 -5.84281 -53.18666 35812 ft 462 kts 315°
2026-04-18 20:43 -5.79773 -53.23224 35807 ft 462 kts 315°
2026-04-18 20:44 -5.75244 -53.27802 35804 ft 462 kts 315°
2026-04-18 20:44 -5.70704 -53.32391 35806 ft 462 kts 315°
2026-04-18 20:45 -5.66168 -53.36973 35806 ft 462 kts 315°
2026-04-18 20:45 -5.61638 -53.41550 35806 ft 462 kts 315°
2026-04-18 20:46 -5.57099 -53.46134 35806 ft 462 kts 315°
2026-04-18 20:46 -5.52587 -53.50689 35808 ft 463 kts 315°
2026-04-18 20:47 -5.48047 -53.55272 35813 ft 463 kts 315°
2026-04-18 20:47 -5.43500 -53.59861 35816 ft 463 kts 315°
2026-04-18 20:48 -5.38954 -53.64448 35818 ft 464 kts 315°
2026-04-18 20:48 -5.34405 -53.69037 35819 ft 464 kts 315°
2026-04-18 20:49 -5.29847 -53.73634 35819 ft 464 kts 315°
2026-04-18 20:49 -5.25300 -53.78218 35819 ft 464 kts 315°
2026-04-18 20:50 -5.20744 -53.82811 35819 ft 464 kts 315°
2026-04-18 20:50 -5.16188 -53.87403 35822 ft 464 kts 315°
2026-04-18 20:51 -5.11634 -53.91992 35817 ft 464 kts 315°
2026-04-18 20:51 -5.07075 -53.96584 35821 ft 464 kts 315°
2026-04-18 20:52 -5.02547 -54.01145 35814 ft 464 kts 315°
2026-04-18 20:52 -4.97973 -54.05721 35812 ft 464 kts 317°
2026-04-18 20:53 -4.92875 -54.09680 35811 ft 464 kts 328°
2026-04-18 20:53 -4.87223 -54.12799 35810 ft 464 kts 332°
2026-04-18 20:54 -4.81507 -54.15838 35813 ft 464 kts 332°
2026-04-18 20:54 -4.75801 -54.18875 35819 ft 465 kts 332°
2026-04-18 20:55 -4.70084 -54.21915 35821 ft 465 kts 332°
2026-04-18 20:55 -4.64366 -54.24954 35825 ft 466 kts 332°
2026-04-18 20:56 -4.58634 -54.27999 35824 ft 466 kts 332°
2026-04-18 20:56 -4.52932 -54.31029 35823 ft 467 kts 332°
2026-04-18 20:57 -4.47191 -54.34077 35833 ft 467 kts 332°
2026-04-18 20:57 -4.41453 -54.37124 35838 ft 467 kts 332°
2026-04-18 20:58 -4.35699 -54.40179 35838 ft 467 kts 332°
2026-04-18 20:58 -4.29952 -54.43229 35842 ft 467 kts 332°
2026-04-18 20:59 -4.24196 -54.46284 35839 ft 467 kts 332°
2026-04-18 20:59 -4.18469 -54.49324 35658 ft 463 kts 332°
2026-04-18 21:00 -4.15617 -54.50817 35159 ft 462 kts 335°
2026-04-18 21:00 -4.12627 -54.51887 34464 ft 463 kts 347°
2026-04-18 21:00 -4.09429 -54.52333 33697 ft 465 kts 358°
2026-04-18 21:00 -4.06187 -54.52427 32865 ft 468 kts 359°
2026-04-18 21:01 -4.02920 -54.52485 32057 ft 470 kts 359°
2026-04-18 21:01 -3.99649 -54.52549 31248 ft 472 kts 359°
2026-04-18 21:01 -3.96349 -54.52627 30449 ft 474 kts 359°
2026-04-18 21:01 -3.93050 -54.52715 29749 ft 474 kts 359°
2026-04-18 21:02 -3.89771 -54.52807 29133 ft 469 kts 359°
2026-04-18 21:02 -3.83323 -54.52995 27957 ft 459 kts 359°
2026-04-18 21:02 -3.80139 -54.53087 27375 ft 454 kts 359°
2026-04-18 21:03 -3.76997 -54.53178 26803 ft 450 kts 359°
2026-04-18 21:03 -3.73918 -54.53267 26263 ft 446 kts 359°
2026-04-18 21:03 -3.70829 -54.53357 25717 ft 442 kts 359°
2026-04-18 21:03 -3.67763 -54.53445 25184 ft 438 kts 359°
2026-04-18 21:04 -3.64730 -54.53533 24655 ft 434 kts 359°
2026-04-18 21:04 -3.61719 -54.53620 24145 ft 431 kts 359°
2026-04-18 21:04 -3.58735 -54.53706 23640 ft 427 kts 359°
2026-04-18 21:04 -3.55775 -54.53792 23083 ft 424 kts 359°
2026-04-18 21:05 -3.52842 -54.53877 22521 ft 419 kts 359°
2026-04-18 21:05 -3.49937 -54.53961 21964 ft 415 kts 359°
2026-04-18 21:05 -3.47068 -54.54044 21412 ft 411 kts 359°
2026-04-18 21:05 -3.44209 -54.54126 20862 ft 408 kts 359°
2026-04-18 21:06 -3.41384 -54.54208 20330 ft 404 kts 359°
2026-04-18 21:06 -3.38587 -54.54289 19808 ft 401 kts 359°
2026-04-18 21:06 -3.36743 -54.54342 19466 ft 399 kts 359°
2026-04-18 21:06 -3.33974 -54.54422 18955 ft 395 kts 359°
2026-04-18 21:07 -3.30318 -54.54528 18292 ft 391 kts 359°
2026-04-18 21:07 -3.28521 -54.54580 17937 ft 389 kts 359°
2026-04-18 21:07 -3.25828 -54.54657 17387 ft 386 kts 359°
2026-04-18 21:07 -3.23160 -54.54734 16857 ft 382 kts 359°
2026-04-18 21:08 -3.19655 -54.54835 16161 ft 378 kts 359°
2026-04-18 21:08 -3.17882 -54.54886 15816 ft 376 kts 359°
2026-04-18 21:08 -3.15282 -54.54961 15300 ft 372 kts 359°
2026-04-18 21:08 -3.12701 -54.55036 14819 ft 370 kts 359°
2026-04-18 21:09 -3.10137 -54.55110 14333 ft 366 kts 359°
2026-04-18 21:09 -3.07629 -54.55182 13863 ft 364 kts 359°
2026-04-18 21:09 -3.05105 -54.55254 13373 ft 361 kts 359°
2026-04-18 21:09 -3.02607 -54.55326 12861 ft 358 kts 359°
2026-04-18 21:10 -3.00126 -54.55397 12347 ft 355 kts 359°
2026-04-18 21:10 -2.97666 -54.55468 11854 ft 352 kts 359°
2026-04-18 21:10 -2.95225 -54.55538 11363 ft 349 kts 359°
2026-04-18 21:10 -2.92806 -54.55608 10879 ft 347 kts 359°
2026-04-18 21:11 -2.90400 -54.55678 10420 ft 344 kts 359°
2026-04-18 21:11 -2.88065 -54.55746 10182 ft 334 kts 359°
2026-04-18 21:11 -2.85789 -54.55812 10058 ft 320 kts 359°
2026-04-18 21:11 -2.83608 -54.55876 9948 ft 307 kts 359°
2026-04-18 21:12 -2.81520 -54.55937 9802 ft 296 kts 359°
2026-04-18 21:12 -2.79473 -54.55995 9447 ft 293 kts 359°
2026-04-18 21:12 -2.77444 -54.56053 9057 ft 290 kts 359°
2026-04-18 21:12 -2.75432 -54.56110 8679 ft 288 kts 359°
2026-04-18 21:13 -2.73432 -54.56168 8308 ft 286 kts 359°
2026-04-18 21:13 -2.71930 -54.56211 8017 ft 285 kts 359°
2026-04-18 21:13 -2.70059 -54.56265 7685 ft 283 kts 359°
2026-04-18 21:13 -2.68096 -54.56322 7317 ft 281 kts 358°
2026-04-18 21:14 -2.66173 -54.56377 6977 ft 279 kts 358°
2026-04-18 21:14 -2.64235 -54.56433 6640 ft 276 kts 358°
2026-04-18 21:14 -2.62354 -54.56487 6539 ft 264 kts 358°
2026-04-18 21:14 -2.60558 -54.56540 6425 ft 250 kts 358°
2026-04-18 21:15 -2.58872 -54.56588 6331 ft 236 kts 358°
2026-04-18 21:15 -2.57282 -54.56634 6175 ft 221 kts 358°
2026-04-18 21:15 -2.55787 -54.56677 6019 ft 207 kts 358°
2026-04-18 21:15 -2.54355 -54.56718 5609 ft 206 kts 358°
2026-04-18 21:16 -2.52926 -54.56759 5184 ft 205 kts 358°
2026-04-18 21:16 -2.51501 -54.56800 4774 ft 204 kts 358°
2026-04-18 21:16 -2.50090 -54.56841 4382 ft 202 kts 357°
2026-04-18 21:16 -2.48701 -54.56967 3999 ft 199 kts 348°
2026-04-18 21:17 -2.47405 -54.57354 3748 ft 191 kts 337°
2026-04-18 21:17 -2.46235 -54.57949 3458 ft 188 kts 329°
2026-04-18 21:17 -2.45129 -54.58595 3131 ft 186 kts 326°
2026-04-18 21:17 -2.44005 -54.59273 2766 ft 186 kts 326°
2026-04-18 21:18 -2.42895 -54.59923 2432 ft 184 kts 326°
2026-04-18 21:18 -2.41797 -54.60544 2081 ft 183 kts 328°
2026-04-18 21:18 -2.40746 -54.61219 1860 ft 177 kts 315°
2026-04-18 21:18 -2.40017 -54.62217 1805 ft 178 kts 292°
2026-04-18 21:19 -2.39740 -54.63423 1810 ft 181 kts 271°
2026-04-18 21:19 -2.39896 -54.64633 1795 ft 165 kts 261°
2026-04-18 21:19 -2.40079 -54.65665 1794 ft 139 kts 262°
2026-04-18 21:19 -2.40230 -54.66636 1814 ft 147 kts 263°
2026-04-18 21:20 -2.40380 -54.67646 1799 ft 143 kts 263°
2026-04-18 21:20 -2.40531 -54.68638 1806 ft 144 kts 263°
2026-04-18 21:20 -2.40683 -54.69610 1819 ft 146 kts 263°
2026-04-18 21:20 -2.40840 -54.70605 1758 ft 143 kts 263°
2026-04-18 21:21 -2.40993 -54.71592 1584 ft 142 kts 262°
2026-04-18 21:21 -2.41141 -54.72517 1402 ft 129 kts 262°
2026-04-18 21:21 -2.41288 -54.73406 1233 ft 133 kts 263°
2026-04-18 21:21 -2.41436 -54.74299 1052 ft 128 kts 264°
2026-04-18 21:22 -2.41580 -54.75176 858 ft 131 kts 263°
2026-04-18 21:22 -2.41727 -54.76085 697 ft 131 kts 264°
2026-04-18 21:22 -2.41867 -54.76950 519 ft 125 kts 263°
2026-04-18 21:22 -2.42022 -54.77844 371 ft 135 kts 264°
2026-04-18 21:23 -2.42149 -54.78700 212 ft 126 kts 264°
2026-04-18 21:23 -2.42242 -54.79326 205 ft 68 kts 262°
2026-04-18 21:23 -2.42314 -54.79749 205 ft 56 kts 263°
2026-04-18 21:23 -2.42377 -54.80099 211 ft 47 kts 262°
2026-04-18 21:24 -2.42441 -54.80294 213 ft 14 kts 229°
2026-04-18 21:24 -2.42432 -54.80323 212 ft 3 kts
2026-04-18 21:24 -2.42421 -54.80315 210 ft 2 kts 36°
2026-04-18 21:24 -2.42411 -54.80299 207 ft 3 kts 71°
2026-04-18 21:25 -2.42405 -54.80279 208 ft 3 kts 73°
2026-04-18 21:25 -2.42401 -54.80264 205 ft 2 kts 75°
2026-04-18 21:25 -2.42389 -54.80207 209 ft 11 kts 81°
2026-04-18 21:25 -2.42375 -54.80112 206 ft 19 kts 79°
2026-04-18 21:26 -2.42330 -54.79941 211 ft 31 kts 71°
2026-04-18 21:26 -2.42263 -54.79715 213 ft 35 kts 101°
2026-04-18 21:26 -2.42269 -54.79474 211 ft 34 kts 81°
2026-04-18 21:26 -2.42227 -54.79245 209 ft 32 kts 77°
2026-04-18 21:27 -2.42192 -54.79039 212 ft 28 kts 85°
2026-04-18 21:27 -2.42174 -54.78851 208 ft 26 kts 83°
2026-04-18 21:27 -2.42227 -54.78709 206 ft 21 kts 137°
2026-04-18 21:27 -2.42330 -54.78613 216 ft 19 kts 133°
2026-04-18 21:28 -2.42378 -54.78562 214 ft 1 kts 178°
2026-04-18 21:28 -2.42389 -54.78571 206 ft 3 kts 202°
2026-04-18 21:29 -2.42407 -54.78562 205 ft 2 kts 141°